Station Historical Data
Daily Summary for October 27, 2017 Units:  English    Metric   Both
Next Day »
Daily Weekly Monthly Yearly Custom
  High: Low: Average:
Temperature: 77.6 °F 62.0 °F 67.7 °F
Dew Point: 49.5 °F 33.5 °F 43.1 °F
Humidity: 54% 30% 42%
Wind Speed: 10.0mph 0.0mph 1.5mph
Wind Gust: 16.0mph - -
Wind- - SE
Pressure: 30.03 in 29.95 in -
Precipitation: 0.00 in    
Historical Graphs
 
 
Tabular Data for October 27, 2017
Time Temperature Dew Point Pressure Wind Wind Speed Wind Gust Humidity Rainfall Rate (Hourly) solar Conditions
00:02 65.0 °F 47.0 °F 29.96 in East 2.0 mph 5.0 mph 52% 0.00 in 0.00 W/m2
00:07 65.0 °F 46.5 °F 29.96 in East 2.0 mph 5.0 mph 51% 0.00 in 0.00 W/m2
00:12 64.9 °F 46.4 °F 29.96 in East 4.0 mph 11.0 mph 51% 0.00 in 0.00 W/m2
00:17 64.9 °F 46.4 °F 29.96 in Calm   8.0 mph 51% 0.00 in 0.00 W/m2
00:22 64.8 °F 46.3 °F 29.96 in Calm   5.0 mph 51% 0.00 in 0.00 W/m2
00:27 64.8 °F 45.7 °F 29.96 in Calm   6.0 mph 50% 0.00 in 0.00 W/m2
00:32 64.7 °F 45.1 °F 29.96 in East 5.0 mph 8.0 mph 49% 0.00 in 0.00 W/m2
00:37 64.7 °F 44.6 °F 29.97 in Calm   6.0 mph 48% 0.00 in 0.00 W/m2
00:42 64.7 °F 45.1 °F 29.97 in Calm   9.0 mph 49% 0.00 in 0.00 W/m2
00:47 64.7 °F 45.1 °F 29.97 in East 1.0 mph 8.0 mph 49% 0.00 in 0.00 W/m2
00:52 64.7 °F 45.1 °F 29.97 in Calm   8.0 mph 49% 0.00 in 0.00 W/m2
00:57 64.6 °F 45.0 °F 29.97 in East 4.0 mph 8.0 mph 49% 0.00 in 0.00 W/m2
01:02 64.6 °F 45.0 °F 29.97 in Calm   9.0 mph 49% 0.00 in 0.00 W/m2
01:07 64.6 °F 44.5 °F 29.97 in East 2.0 mph 8.0 mph 48% 0.00 in 0.00 W/m2
01:12 64.5 °F 43.8 °F 29.97 in East 2.0 mph 7.0 mph 47% 0.00 in 0.00 W/m2
01:17 64.5 °F 43.8 °F 29.97 in Calm   8.0 mph 47% 0.00 in 0.00 W/m2
01:22 64.4 °F 43.8 °F 29.97 in ESE 6.0 mph 6.0 mph 47% 0.00 in 0.00 W/m2
01:27 64.4 °F 43.2 °F 29.97 in Calm   7.0 mph 46% 0.00 in 0.00 W/m2
01:32 64.3 °F 43.1 °F 29.97 in East 2.0 mph 7.0 mph 46% 0.00 in 0.00 W/m2
01:37 64.3 °F 42.5 °F 29.97 in Calm   6.0 mph 45% 0.00 in 0.00 W/m2
01:42 64.2 °F 42.4 °F 29.97 in East 4.0 mph 9.0 mph 45% 0.00 in 0.00 W/m2
01:47 64.1 °F 42.3 °F 29.97 in East 1.0 mph 12.0 mph 45% 0.00 in 0.00 W/m2
01:52 64.1 °F 42.3 °F 29.98 in East 5.0 mph 7.0 mph 45% 0.00 in 0.00 W/m2
01:57 64.1 °F 42.3 °F 29.98 in East 2.0 mph 6.0 mph 45% 0.00 in 0.00 W/m2
02:02 64.0 °F 42.3 °F 29.98 in East 4.0 mph 6.0 mph 45% 0.00 in 0.00 W/m2
02:07 64.0 °F 41.7 °F 29.98 in East 6.0 mph 8.0 mph 44% 0.00 in 0.00 W/m2
02:12 64.0 °F 41.7 °F 29.98 in Calm   7.0 mph 44% 0.00 in 0.00 W/m2
02:18 63.9 °F 41.0 °F 29.98 in East 2.0 mph 7.0 mph 43% 0.00 in 0.00 W/m2
02:23 63.9 °F 39.8 °F 29.98 in Calm   11.0 mph 41% 0.00 in 0.00 W/m2
02:28 63.9 °F 41.0 °F 29.98 in East 7.0 mph 11.0 mph 43% 0.00 in 0.00 W/m2
02:33 63.8 °F 40.9 °F 29.98 in East 1.0 mph 11.0 mph 43% 0.00 in 0.00 W/m2
02:38 63.8 °F 39.7 °F 29.98 in East 5.0 mph 11.0 mph 41% 0.00 in 0.00 W/m2
02:43 63.8 °F 39.7 °F 29.98 in Calm   14.0 mph 41% 0.00 in 0.00 W/m2
02:48 63.9 °F 39.8 °F 29.98 in East 7.0 mph 9.0 mph 41% 0.00 in 0.00 W/m2
02:53 63.9 °F 39.8 °F 29.98 in Calm   13.0 mph 41% 0.00 in 0.00 W/m2
02:58 63.9 °F 39.8 °F 29.98 in East 4.0 mph 12.0 mph 41% 0.00 in 0.00 W/m2
03:03 63.9 °F 39.1 °F 29.98 in East 7.0 mph 16.0 mph 40% 0.00 in 0.00 W/m2
03:08 63.9 °F 39.8 °F 29.98 in East 8.0 mph 11.0 mph 41% 0.00 in 0.00 W/m2
03:13 63.8 °F 39.7 °F 29.98 in ESE 1.0 mph 12.0 mph 41% 0.00 in 0.00 W/m2
03:18 63.7 °F 39.0 °F 29.98 in East 2.0 mph 16.0 mph 40% 0.00 in 0.00 W/m2
03:23 63.7 °F 39.0 °F 29.98 in ESE 6.0 mph 9.0 mph 40% 0.00 in 0.00 W/m2
03:28 63.6 °F 38.9 °F 29.98 in ESE 7.0 mph 11.0 mph 40% 0.00 in 0.00 W/m2
03:33 63.6 °F 38.9 °F 29.98 in ESE 6.0 mph 12.0 mph 40% 0.00 in 0.00 W/m2
03:38 63.5 °F 38.8 °F 29.98 in East 6.0 mph 13.0 mph 40% 0.00 in 0.00 W/m2
03:43 63.5 °F 38.1 °F 29.98 in Calm   13.0 mph 39% 0.00 in 0.00 W/m2
03:48 63.4 °F 38.0 °F 29.99 in Calm   9.0 mph 39% 0.00 in 0.00 W/m2
03:53 63.4 °F 37.4 °F 29.99 in Calm   9.0 mph 38% 0.00 in 0.00 W/m2
03:58 63.4 °F 38.7 °F 29.99 in East 2.0 mph 13.0 mph 40% 0.00 in 0.00 W/m2
04:03 63.4 °F 38.7 °F 29.99 in East 2.0 mph 8.0 mph 40% 0.00 in 0.00 W/m2
04:08 63.3 °F 38.0 °F 29.98 in East 4.0 mph 11.0 mph 39% 0.00 in 0.00 W/m2
04:13 63.2 °F 37.9 °F 29.98 in ESE 4.0 mph 9.0 mph 39% 0.00 in 0.00 W/m2
04:18 63.1 °F 37.1 °F 29.98 in ESE 2.0 mph 7.0 mph 38% 0.00 in 0.00 W/m2
04:24 63.1 °F 37.8 °F 29.98 in ESE 5.0 mph 8.0 mph 39% 0.00 in 0.00 W/m2
04:29 63.1 °F 37.8 °F 29.98 in Calm   12.0 mph 39% 0.00 in 0.00 W/m2
04:34 63.0 °F 37.7 °F 29.98 in ESE 2.0 mph 12.0 mph 39% 0.00 in 0.00 W/m2
04:39 62.9 °F 37.6 °F 29.99 in East 7.0 mph 11.0 mph 39% 0.00 in 0.00 W/m2
04:44 62.8 °F 36.8 °F 29.98 in Calm   12.0 mph 38% 0.00 in 0.00 W/m2
04:49 62.7 °F 36.8 °F 29.99 in ESE 6.0 mph 11.0 mph 38% 0.00 in 0.00 W/m2
04:54 62.7 °F 36.8 °F 29.99 in ESE 2.0 mph 11.0 mph 38% 0.00 in 0.00 W/m2
04:59 62.7 °F 36.8 °F 29.99 in ESE 1.0 mph 12.0 mph 38% 0.00 in 0.00 W/m2
05:04 62.7 °F 36.8 °F 29.99 in ESE 2.0 mph 9.0 mph 38% 0.00 in 0.00 W/m2
05:09 62.7 °F 36.8 °F 29.99 in ESE 1.0 mph 8.0 mph 38% 0.00 in 0.00 W/m2
05:14 62.7 °F 37.4 °F 29.99 in Calm   7.0 mph 39% 0.00 in 0.00 W/m2
05:19 62.6 °F 36.7 °F 29.99 in East 4.0 mph 8.0 mph 38% 0.00 in 0.00 W/m2
05:24 62.5 °F 36.6 °F 29.99 in Calm   4.0 mph 38% 0.00 in 0.00 W/m2
05:29 62.4 °F 36.5 °F 29.99 in East 1.0 mph 6.0 mph 38% 0.00 in 0.00 W/m2
05:39 62.3 °F 36.4 °F 29.99 in Calm   8.0 mph 38% 0.00 in 0.00 W/m2
05:44 62.3 °F 36.4 °F 29.99 in ESE 8.0 mph 8.0 mph 38% 0.00 in 0.00 W/m2
05:49 62.3 °F 36.4 °F 29.99 in ESE 1.0 mph 6.0 mph 38% 0.00 in 0.00 W/m2
05:54 62.3 °F 35.7 °F 29.99 in Calm   6.0 mph 37% 0.00 in 0.00 W/m2
05:59 62.2 °F 36.3 °F 29.99 in Calm   6.0 mph 38% 0.00 in 0.00 W/m2
06:04 62.2 °F 36.3 °F 29.99 in Calm   7.0 mph 38% 0.00 in 0.00 W/m2
06:09 62.1 °F 35.5 °F 29.99 in East 1.0 mph 5.0 mph 37% 0.00 in 0.00 W/m2
06:14 62.1 °F 35.5 °F 29.99 in East 1.0 mph 6.0 mph 37% 0.00 in 0.00 W/m2
06:19 62.1 °F 36.2 °F 29.99 in Calm   6.0 mph 38% 0.00 in 0.00 W/m2
06:24 62.0 °F 35.5 °F 29.99 in Calm   6.0 mph 37% 0.00 in 0.00 W/m2
06:29 62.0 °F 34.8 °F 29.99 in East 5.0 mph 8.0 mph 36% 0.00 in 0.00 W/m2
06:34 62.0 °F 34.1 °F 29.99 in East 2.0 mph 9.0 mph 35% 0.00 in 0.00 W/m2
06:39 62.0 °F 35.5 °F 29.99 in East 2.0 mph 8.0 mph 37% 0.00 in 0.00 W/m2
06:44 62.0 °F 34.8 °F 29.99 in Calm   8.0 mph 36% 0.00 in 0.00 W/m2
06:49 62.0 °F 34.8 °F 29.99 in Calm   11.0 mph 36% 0.00 in 0.00 W/m2
06:55 62.0 °F 34.1 °F 29.99 in East 5.0 mph 13.0 mph 35% 0.00 in 0.00 W/m2
06:59 62.1 °F 34.2 °F 29.99 in East 6.0 mph 9.0 mph 35% 0.00 in 0.00 W/m2
07:05 62.1 °F 34.2 °F 29.99 in East 6.0 mph 13.0 mph 35% 0.00 in 0.00 W/m2
07:10 62.2 °F 33.5 °F 29.99 in East 8.0 mph 12.0 mph 34% 0.00 in 0.00 W/m2
07:15 62.2 °F 34.9 °F 30.00 in East 7.0 mph 13.0 mph 36% 0.00 in 0.00 W/m2
07:20 62.2 °F 34.2 °F 30.00 in ESE 2.0 mph 12.0 mph 35% 0.00 in 0.00 W/m2
07:25 62.3 °F 35.0 °F 30.00 in East 1.0 mph 14.0 mph 36% 0.00 in 5.00 W/m2
07:30 62.3 °F 35.0 °F 30.00 in East 1.0 mph 12.0 mph 36% 0.00 in 7.00 W/m2
07:35 62.2 °F 34.9 °F 30.00 in Calm   12.0 mph 36% 0.00 in 11.00 W/m2
07:40 62.2 °F 33.5 °F 30.00 in East 7.0 mph 9.0 mph 34% 0.00 in 12.00 W/m2
07:45 62.2 °F 34.2 °F 30.00 in ESE 2.0 mph 12.0 mph 35% 0.00 in 14.00 W/m2
07:50 62.2 °F 34.2 °F 30.00 in Calm   14.0 mph 35% 0.00 in 21.00 W/m2
07:55 62.2 °F 34.9 °F 30.00 in Calm   14.0 mph 36% 0.00 in 30.00 W/m2
08:00 62.2 °F 35.6 °F 30.00 in East 1.0 mph 11.0 mph 37% 0.00 in 44.00 W/m2
08:10 62.2 °F 35.6 °F 30.01 in Calm   14.0 mph 37% 0.00 in 74.00 W/m2
08:15 62.2 °F 36.3 °F 30.01 in Calm   7.0 mph 38% 0.00 in 90.00 W/m2
08:20 62.2 °F 36.3 °F 30.01 in ESE 5.0 mph 8.0 mph 38% 0.00 in 107.00 W/m2
08:25 62.1 °F 36.9 °F 30.01 in ESE 8.0 mph 14.0 mph 39% 0.00 in 125.00 W/m2
08:30 62.1 °F 36.9 °F 30.01 in East 1.0 mph 12.0 mph 39% 0.00 in 142.00 W/m2
08:35 62.1 °F 36.9 °F 30.01 in Calm   12.0 mph 39% 0.00 in 163.00 W/m2
08:40 62.1 °F 36.9 °F 30.01 in East 1.0 mph 12.0 mph 39% 0.00 in 181.00 W/m2
08:45 62.2 °F 37.6 °F 30.01 in Calm   14.0 mph 40% 0.00 in 202.00 W/m2
08:50 62.3 °F 37.7 °F 30.02 in Calm   11.0 mph 40% 0.00 in 221.00 W/m2
08:55 62.3 °F 37.7 °F 30.02 in ESE 6.0 mph 6.0 mph 40% 0.00 in 243.00 W/m2
09:00 62.4 °F 38.4 °F 30.02 in Calm   8.0 mph 41% 0.00 in 257.00 W/m2
09:05 62.6 °F 38.0 °F 30.02 in Calm   12.0 mph 40% 0.00 in 281.00 W/m2
09:10 62.8 °F 39.4 °F 30.02 in Calm   6.0 mph 42% 0.00 in 301.00 W/m2
09:15 63.0 °F 39.6 °F 30.02 in Calm   7.0 mph 42% 0.00 in 316.00 W/m2
09:20 63.2 °F 39.8 °F 30.02 in ESE 2.0 mph 2.0 mph 42% 0.00 in 330.00 W/m2
09:25 63.3 °F 39.8 °F 30.02 in Calm     42% 0.00 in 343.00 W/m2
09:30 63.5 °F 40.6 °F 30.02 in Calm   2.0 mph 43% 0.00 in 359.00 W/m2
09:35 63.6 °F 40.1 °F 30.02 in Calm   4.0 mph 42% 0.00 in 374.00 W/m2
09:40 63.8 °F 40.9 °F 30.02 in Calm   6.0 mph 43% 0.00 in 387.00 W/m2
09:45 64.0 °F 40.5 °F 30.03 in ESE 1.0 mph 5.0 mph 42% 0.00 in 401.00 W/m2
09:50 64.2 °F 39.4 °F 30.02 in Calm     40% 0.00 in 415.00 W/m2
09:55 64.4 °F 40.2 °F 30.02 in ESE 2.0 mph 7.0 mph 41% 0.00 in 425.00 W/m2
10:00 64.8 °F 39.3 °F 30.02 in Calm     39% 0.00 in 436.00 W/m2
10:05 65.1 °F 40.2 °F 30.02 in Calm   8.0 mph 40% 0.00 in 450.00 W/m2
10:13 65.8 °F 41.5 °F 30.02 in SE 5.0 mph 7.0 mph 41% 0.00 in 468.00 W/m2
10:18 66.2 °F 40.5 °F 30.02 in Calm   1.0 mph 39% 0.00 in 480.00 W/m2
10:23 66.7 °F 41.0 °F 30.03 in Calm   8.0 mph 39% 0.00 in 489.00 W/m2
10:28 67.2 °F 42.7 °F 30.03 in SE 2.0 mph 4.0 mph 41% 0.00 in 501.00 W/m2
10:33 67.5 °F 41.7 °F 30.02 in SE 1.0 mph 5.0 mph 39% 0.00 in 512.00 W/m2
10:38 67.9 °F 42.1 °F 30.02 in SE 1.0 mph 8.0 mph 39% 0.00 in 522.00 W/m2
10:43 68.4 °F 43.2 °F 30.02 in SSE 7.0 mph 9.0 mph 40% 0.00 in 531.00 W/m2
10:48 68.8 °F 43.5 °F 30.02 in South 3.0 mph 11.0 mph 40% 0.00 in 540.00 W/m2
10:53 69.2 °F 45.2 °F 30.02 in South 7.0 mph 8.0 mph 42% 0.00 in 545.00 W/m2
10:59 69.6 °F 44.9 °F 30.02 in Calm   4.0 mph 41% 0.00 in 554.00 W/m2
11:04 69.9 °F 45.8 °F 30.02 in South 6.0 mph 7.0 mph 42% 0.00 in 563.00 W/m2
11:09 70.3 °F 45.5 °F 30.02 in South 5.0 mph 6.0 mph 41% 0.00 in 570.00 W/m2
11:14 70.7 °F 45.2 °F 30.02 in South 6.0 mph 8.0 mph 40% 0.00 in 578.00 W/m2
11:19 71.1 °F 44.9 °F 30.02 in South 5.0 mph 9.0 mph 39% 0.00 in 584.00 W/m2
11:24 71.6 °F 44.0 °F 30.02 in SSE 10.0 mph 10.0 mph 37% 0.00 in 591.00 W/m2
11:29 72.1 °F 44.4 °F 30.02 in South 6.0 mph 10.0 mph 37% 0.00 in 599.00 W/m2
11:34 72.6 °F 44.9 °F 30.02 in Calm   9.0 mph 37% 0.00 in 606.00 W/m2
11:39 73.1 °F 45.3 °F 30.02 in SSW 1.0 mph 8.0 mph 37% 0.00 in 612.00 W/m2
11:44 73.6 °F 44.3 °F 30.02 in SSE 2.0 mph 9.0 mph 35% 0.00 in 617.00 W/m2
11:49 73.9 °F 43.0 °F 30.02 in Calm   7.0 mph 33% 0.00 in 621.00 W/m2
11:54 74.2 °F 43.3 °F 30.02 in South 2.0 mph 8.0 mph 33% 0.00 in 626.00 W/m2
11:59 74.4 °F 43.5 °F 30.02 in South 2.0 mph 5.0 mph 33% 0.00 in 628.00 W/m2
12:04 74.6 °F 44.4 °F 30.02 in Calm   7.0 mph 34% 0.00 in 633.00 W/m2
12:09 74.8 °F 43.8 °F 30.02 in Calm   7.0 mph 33% 0.00 in 636.00 W/m2
12:14 74.8 °F 44.6 °F 30.02 in South 2.0 mph 8.0 mph 34% 0.00 in 640.00 W/m2
12:19 74.9 °F 43.9 °F 30.02 in South 1.0 mph 3.0 mph 33% 0.00 in 642.00 W/m2
12:21 74.9 °F 44.7 °F 30.02 in Calm   7.0 mph 34% 0.00 in 640.00 W/m2
12:26 74.9 °F 45.4 °F 30.01 in Calm   1.0 mph 35% 0.00 in 643.00 W/m2
12:31 75.0 °F 45.5 °F 30.01 in Calm     35% 0.00 in 643.00 W/m2
12:37 74.9 °F 44.7 °F 30.01 in SW 6.0 mph 6.0 mph 34% 0.00 in 643.00 W/m2
12:42 75.0 °F 45.5 °F 30.01 in South 6.0 mph 8.0 mph 35% 0.00 in 647.00 W/m2
12:47 75.1 °F 44.8 °F 30.01 in Calm     34% 0.00 in 645.00 W/m2
12:52 75.1 °F 45.6 °F 30.00 in Calm   2.0 mph 35% 0.00 in 645.00 W/m2
12:57 75.2 °F 44.9 °F 30.00 in Calm     34% 0.00 in 645.00 W/m2
13:02 75.3 °F 44.2 °F 30.00 in SW 8.0 mph 9.0 mph 33% 0.00 in 642.00 W/m2
13:07 75.4 °F 44.3 °F 30.00 in Calm     33% 0.00 in 643.00 W/m2
13:12 75.6 °F 44.5 °F 30.00 in SW 3.0 mph 7.0 mph 33% 0.00 in 640.00 W/m2
13:17 75.7 °F 44.6 °F 30.00 in Calm   5.0 mph 33% 0.00 in 638.00 W/m2
13:22 75.8 °F 43.9 °F 29.99 in Calm   7.0 mph 32% 0.00 in 635.00 W/m2
13:27 76.0 °F 44.0 °F 29.99 in Calm     32% 0.00 in 631.00 W/m2
13:32 76.1 °F 44.1 °F 29.99 in Calm   2.0 mph 32% 0.00 in 626.00 W/m2
13:37 76.3 °F 42.6 °F 29.99 in SSW 4.0 mph 7.0 mph 30% 0.00 in 622.00 W/m2
13:42 76.4 °F 42.7 °F 29.99 in Calm     30% 0.00 in 617.00 W/m2
13:47 76.6 °F 43.7 °F 29.99 in SSW 2.0 mph 6.0 mph 31% 0.00 in 610.00 W/m2
13:52 76.7 °F 43.0 °F 29.98 in SSW 2.0 mph 2.0 mph 30% 0.00 in 608.00 W/m2
13:57 76.9 °F 44.0 °F 29.98 in South 6.0 mph 6.0 mph 31% 0.00 in 601.00 W/m2
14:02 77.0 °F 43.2 °F 29.98 in South 4.0 mph 4.0 mph 30% 0.00 in 596.00 W/m2
14:07 77.1 °F 43.3 °F 29.98 in SSE 6.0 mph 7.0 mph 30% 0.00 in 587.00 W/m2
14:12 77.2 °F 43.4 °F 29.98 in Calm   1.0 mph 30% 0.00 in 582.00 W/m2
14:17 77.4 °F 43.6 °F 29.98 in Calm     30% 0.00 in 575.00 W/m2
14:22 77.5 °F 43.7 °F 29.98 in Calm   3.0 mph 30% 0.00 in 566.00 W/m2
14:27 77.5 °F 44.5 °F 29.98 in Calm   4.0 mph 31% 0.00 in 557.00 W/m2
14:32 77.6 °F 44.6 °F 29.97 in Calm     31% 0.00 in 548.00 W/m2
14:37 77.6 °F 44.6 °F 29.97 in Calm   4.0 mph 31% 0.00 in 541.00 W/m2
14:42 77.6 °F 44.6 °F 29.97 in West 2.0 mph 8.0 mph 31% 0.00 in 531.00 W/m2
14:47 77.6 °F 44.6 °F 29.97 in West 1.0 mph 5.0 mph 31% 0.00 in 520.00 W/m2
14:52 77.6 °F 45.4 °F 29.97 in Calm   3.0 mph 32% 0.00 in 512.00 W/m2
14:57 77.6 °F 44.6 °F 29.97 in Calm   2.0 mph 31% 0.00 in 503.00 W/m2
15:02 77.6 °F 44.6 °F 29.97 in Calm     31% 0.00 in 490.00 W/m2
15:07 77.6 °F 44.6 °F 29.97 in Calm     31% 0.00 in 480.00 W/m2
15:12 77.6 °F 45.4 °F 29.96 in Calm   3.0 mph 32% 0.00 in 469.00 W/m2
15:17 77.6 °F 45.4 °F 29.96 in Calm   1.0 mph 32% 0.00 in 457.00 W/m2
15:22 77.6 °F 45.4 °F 29.96 in Calm   1.0 mph 32% 0.00 in 446.00 W/m2
15:27 77.6 °F 45.4 °F 29.96 in Calm   1.0 mph 32% 0.00 in 432.00 W/m2
15:28 77.6 °F 45.4 °F 29.96 in Calm   1.0 mph 32% 0.00 in 431.00 W/m2
15:33 77.6 °F 45.4 °F 29.96 in Calm   2.0 mph 32% 0.00 in 418.00 W/m2
15:38 77.6 °F 46.2 °F 29.97 in WSW 3.0 mph 3.0 mph 33% 0.00 in 406.00 W/m2
15:43 77.6 °F 47.0 °F 29.97 in WSW 1.0 mph 4.0 mph 34% 0.00 in 392.00 W/m2
15:48 77.5 °F 47.7 °F 29.97 in Calm   1.0 mph 35% 0.00 in 378.00 W/m2
15:53 77.4 °F 46.9 °F 29.97 in Calm   1.0 mph 34% 0.00 in 362.00 W/m2
15:58 77.4 °F 47.6 °F 29.97 in Calm   6.0 mph 35% 0.00 in 350.00 W/m2
16:04 77.3 °F 48.3 °F 29.97 in Calm   5.0 mph 36% 0.00 in 336.00 W/m2
16:09 77.0 °F 47.3 °F 29.97 in Calm   6.0 mph 35% 0.00 in 323.00 W/m2
16:14 76.9 °F 47.2 °F 29.97 in WSW 2.0 mph 6.0 mph 35% 0.00 in 309.00 W/m2
16:19 76.8 °F 47.8 °F 29.97 in Calm   4.0 mph 36% 0.00 in 295.00 W/m2
16:24 76.7 °F 48.5 °F 29.97 in Calm     37% 0.00 in 279.00 W/m2
16:29 76.5 °F 47.6 °F 29.96 in Calm   1.0 mph 36% 0.00 in 265.00 W/m2
16:34 76.4 °F 47.5 °F 29.96 in Calm   5.0 mph 36% 0.00 in 250.00 W/m2
16:39 76.3 °F 47.4 °F 29.96 in Calm   1.0 mph 36% 0.00 in 236.00 W/m2
16:44 76.1 °F 47.2 °F 29.96 in Calm   4.0 mph 36% 0.00 in 220.00 W/m2
16:49 76.0 °F 47.2 °F 29.96 in Calm     36% 0.00 in 200.00 W/m2
16:54 75.9 °F 48.5 °F 29.96 in Calm     38% 0.00 in 181.00 W/m2
16:59 75.8 °F 47.7 °F 29.96 in Calm     37% 0.00 in 162.00 W/m2
17:04 75.7 °F 49.0 °F 29.96 in Calm   2.0 mph 39% 0.00 in 141.00 W/m2
17:09 75.5 °F 48.1 °F 29.96 in Calm     38% 0.00 in 123.00 W/m2
17:14 75.3 °F 49.3 °F 29.96 in Calm   1.0 mph 40% 0.00 in 104.00 W/m2
17:19 75.1 °F 49.2 °F 29.96 in Calm     40% 0.00 in 86.00 W/m2
17:24 74.8 °F 48.9 °F 29.96 in Calm     40% 0.00 in 70.00 W/m2
17:29 74.5 °F 48.6 °F 29.96 in Calm     40% 0.00 in 58.00 W/m2
17:34 74.3 °F 48.4 °F 29.96 in Calm     40% 0.00 in 44.00 W/m2
17:39 73.9 °F 48.7 °F 29.96 in Calm     41% 0.00 in 33.00 W/m2
17:44 73.5 °F 48.4 °F 29.96 in Calm   1.0 mph 41% 0.00 in 23.00 W/m2
17:49 73.1 °F 48.7 °F 29.96 in Calm     42% 0.00 in 16.00 W/m2
17:54 72.6 °F 49.5 °F 29.96 in Calm     44% 0.00 in 14.00 W/m2
17:59 72.1 °F 48.4 °F 29.96 in Calm     43% 0.00 in 11.00 W/m2
18:04 71.6 °F 48.6 °F 29.96 in Calm     44% 0.00 in 9.00 W/m2
18:09 71.1 °F 48.7 °F 29.96 in Calm     45% 0.00 in 7.00 W/m2
18:14 70.7 °F 48.3 °F 29.96 in Calm     45% 0.00 in 5.00 W/m2
18:19 70.1 °F 48.4 °F 29.96 in Calm     46% 0.00 in 0.00 W/m2
18:24 69.7 °F 48.0 °F 29.96 in Calm     46% 0.00 in 0.00 W/m2
18:29 69.3 °F 48.2 °F 29.96 in Calm     47% 0.00 in 0.00 W/m2
18:34 68.8 °F 48.3 °F 29.96 in Calm     48% 0.00 in 0.00 W/m2
18:39 68.4 °F 48.0 °F 29.96 in Calm     48% 0.00 in 0.00 W/m2
18:45 68.1 °F 47.7 °F 29.96 in Calm     48% 0.00 in 0.00 W/m2
18:50 67.8 °F 47.4 °F 29.96 in Calm     48% 0.00 in 0.00 W/m2
18:55 67.5 °F 47.7 °F 29.96 in Calm     49% 0.00 in 0.00 W/m2
19:00 67.2 °F 47.4 °F 29.96 in Calm     49% 0.00 in 0.00 W/m2
19:05 67.0 °F 46.7 °F 29.96 in Calm     48% 0.00 in 0.00 W/m2
19:10 66.8 °F 47.0 °F 29.96 in Calm     49% 0.00 in 0.00 W/m2
19:15 66.7 °F 47.0 °F 29.96 in Calm     49% 0.00 in 0.00 W/m2
19:20 66.6 °F 47.4 °F 29.96 in Calm     50% 0.00 in 0.00 W/m2
19:25 66.4 °F 47.2 °F 29.96 in Calm     50% 0.00 in 0.00 W/m2
19:30 66.3 °F 47.1 °F 29.96 in Calm     50% 0.00 in 0.00 W/m2
19:35 66.1 °F 46.9 °F 29.96 in Calm     50% 0.00 in 0.00 W/m2
19:40 66.0 °F 46.8 °F 29.96 in Calm     50% 0.00 in 0.00 W/m2
19:45 66.0 °F 47.4 °F 29.96 in Calm     51% 0.00 in 0.00 W/m2
19:50 65.8 °F 46.7 °F 29.95 in Calm     50% 0.00 in 0.00 W/m2
19:55 65.7 °F 46.6 °F 29.96 in Calm     50% 0.00 in 0.00 W/m2
20:00 65.7 °F 47.6 °F 29.96 in Calm     52% 0.00 in 0.00 W/m2
20:05 65.6 °F 47.0 °F 29.96 in Calm   3.0 mph 51% 0.00 in 0.00 W/m2
20:11 65.6 °F 47.0 °F 29.96 in Calm     51% 0.00 in 0.00 W/m2
20:17 65.5 °F 47.4 °F 29.96 in ESE 2.0 mph 5.0 mph 52% 0.00 in 0.00 W/m2
20:22 65.4 °F 46.8 °F 29.95 in ESE 6.0 mph 7.0 mph 51% 0.00 in 0.00 W/m2
20:23 65.4 °F 46.8 °F 29.95 in Calm   7.0 mph 51% 0.00 in 0.00 W/m2
20:24 65.4 °F 47.3 °F 29.95 in Calm   7.0 mph 52% 0.00 in 0.00 W/m2
20:25 65.4 °F 47.3 °F 29.95 in ESE 1.0 mph 7.0 mph 52% 0.00 in 0.00 W/m2
20:30 65.4 °F 46.8 °F 29.95 in Calm   5.0 mph 51% 0.00 in 0.00 W/m2
20:35 65.3 °F 47.2 °F 29.95 in Calm     52% 0.00 in 0.00 W/m2
20:40 65.3 °F 47.2 °F 29.95 in Calm   2.0 mph 52% 0.00 in 0.00 W/m2
20:45 65.3 °F 47.2 °F 29.95 in Calm     52% 0.00 in 0.00 W/m2
20:50 65.3 °F 47.8 °F 29.95 in East 5.0 mph 5.0 mph 53% 0.00 in 0.00 W/m2
20:55 65.3 °F 47.2 °F 29.95 in Calm   2.0 mph 52% 0.00 in 0.00 W/m2
21:00 65.3 °F 47.8 °F 29.95 in East 4.0 mph 4.0 mph 53% 0.00 in 0.00 W/m2
21:05 65.3 °F 47.2 °F 29.95 in Calm   5.0 mph 52% 0.00 in 0.00 W/m2
21:10 65.3 °F 47.2 °F 29.95 in Calm   1.0 mph 52% 0.00 in 0.00 W/m2
21:20 65.2 °F 47.2 °F 29.95 in East 2.0 mph 2.0 mph 52% 0.00 in 0.00 W/m2
21:25 65.2 °F 47.2 °F 29.95 in Calm   4.0 mph 52% 0.00 in 0.00 W/m2
21:30 65.2 °F 47.2 °F 29.95 in Calm   4.0 mph 52% 0.00 in 0.00 W/m2
21:35 65.2 °F 47.2 °F 29.95 in Calm   4.0 mph 52% 0.00 in 0.00 W/m2
21:40 65.0 °F 47.0 °F 29.95 in Calm   1.0 mph 52% 0.00 in 0.00 W/m2
21:45 65.0 °F 47.0 °F 29.95 in Calm     52% 0.00 in 0.00 W/m2
21:47 65.0 °F 47.0 °F 29.96 in Calm   4.0 mph 52% 0.00 in 0.00 W/m2
21:52 64.9 °F 47.4 °F 29.96 in Calm     53% 0.00 in 0.00 W/m2
21:57 64.9 °F 46.9 °F 29.96 in Calm   5.0 mph 52% 0.00 in 0.00 W/m2
22:02 64.8 °F 46.8 °F 29.96 in East 7.0 mph 7.0 mph 52% 0.00 in 0.00 W/m2
22:07 64.8 °F 47.3 °F 29.96 in Calm     53% 0.00 in 0.00 W/m2
22:12 64.7 °F 47.2 °F 29.96 in Calm     53% 0.00 in 0.00 W/m2
22:17 64.7 °F 46.7 °F 29.96 in Calm     52% 0.00 in 0.00 W/m2
22:22 64.6 °F 47.1 °F 29.96 in Calm     53% 0.00 in 0.00 W/m2
22:27 64.5 °F 47.0 °F 29.95 in Calm     53% 0.00 in 0.00 W/m2
22:32 64.4 °F 46.4 °F 29.95 in Calm     52% 0.00 in 0.00 W/m2
22:37 64.4 °F 46.9 °F 29.96 in Calm     53% 0.00 in 0.00 W/m2
22:42 64.3 °F 46.8 °F 29.96 in Calm     53% 0.00 in 0.00 W/m2
22:47 64.1 °F 46.6 °F 29.96 in Calm     53% 0.00 in 0.00 W/m2
22:52 64.1 °F 47.1 °F 29.96 in Calm   5.0 mph 54% 0.00 in 0.00 W/m2
22:57 64.0 °F 46.5 °F 29.96 in Calm   5.0 mph 53% 0.00 in 0.00 W/m2
23:02 63.9 °F 46.5 °F 29.96 in Calm   1.0 mph 53% 0.00 in 0.00 W/m2
23:07 63.9 °F 46.5 °F 29.96 in Calm     53% 0.00 in 0.00 W/m2
23:12 63.8 °F 46.4 °F 29.96 in Calm     53% 0.00 in 0.00 W/m2
23:17 63.8 °F 46.8 °F 29.96 in Calm     54% 0.00 in 0.00 W/m2
23:22 63.7 °F 46.8 °F 29.96 in Calm   1.0 mph 54% 0.00 in 0.00 W/m2
23:27 63.7 °F 46.8 °F 29.96 in Calm   1.0 mph 54% 0.00 in 0.00 W/m2
23:32 63.6 °F 46.7 °F 29.96 in East 4.0 mph 6.0 mph 54% 0.00 in 0.00 W/m2
23:38 63.5 °F 46.6 °F 29.96 in Calm   5.0 mph 54% 0.00 in 0.00 W/m2
23:43 63.4 °F 46.5 °F 29.96 in Calm   4.0 mph 54% 0.00 in 0.00 W/m2
23:48 63.4 °F 46.5 °F 29.96 in Calm   5.0 mph 54% 0.00 in 0.00 W/m2
23:53 63.3 °F 46.4 °F 29.96 in Calm   6.0 mph 54% 0.00 in 0.00 W/m2
23:58 63.3 °F 46.4 °F 29.96 in Calm   5.0 mph 54% 0.00 in 0.00 W/m2
Foresthill Weather
 WU-history PHP script courtesy of   Juneau County Weather.
powered by Cumulus v1.9.3 (1059)
Ambient Weather VWS v14.00
Top Contact Website Map Copyright © 2007 - 2018 Foresthillweather.com Never base important decisions on this or any weather information obtained from the Internet